Current weather by "City, St" or "zip code"  
 

Current Conditions: Maxwell Air Force Base / Montgomery, AL

Fair


75.0 F

Last Updated on Oct 29 2020, 3:56 pm CDT
Humidity: 96%
Wind Speed: SW 17.3 G 26.5 mph
Barometer 29.72 in
Dewpoint: 73.6 F
Visibility: 10.00 mi
Precip: --
Heat Index: NA
Wind Chill: NA
Current conditions at:

Maxwell Air Force Base / Montgomery, AL (KMXF)

Lat: 32.38333 Lon: 86.36667

Local Radar Image active severe weather and emergency alerts image image weather storm and storm spotter reports image weather observation monitoring service image
Local
Radar
Active
Alerts
Storm Reports Obs
Monitoring

Sign-up For Email & Text Message Weather Alert Notification Services



Advertise Here

Observation History for Maxwell Air Force Base / Montgomery, AL


Time Wind
(mph)
Vis
(mi)
Weather Precip (in) Temperature (F) Relative
Humidity
Wind
Chill
(F)
Heat
Index
(F)
Pressure
Air Dwpt altimeter
(in)
sea level
(mb)
Rmks
3:56 pm CDT SW 17.3 G 26.5 10.00 Fair -- 75.0 73.6 96% NA NA 29.72 1006.5
2:56 pm CDT W 12.7 G 18.4 10.00 A Few Clouds 00.80 78.0 77.2 97% NA NA 29.71 1006.2
1:56 pm CDT W 18.4 G 26.5 10.00 Fair -- 79.0 77.9 97% NA NA 29.71 1006.2
12:56 pm CDT SW 12.7 G 20.7 10.00 A Few Clouds 00.80 77.0 76.5 98% NA NA 29.71 1006.2
11:56 am CDT SW 11.5 G 20.7 9.00 A Few Clouds -- 78.0 78.1 99% NA NA 29.73 1006.9
10:56 am CDT W 11.5 G 20.7 10.00 Partly Cloudy 00.80 76.0 75.6 99% NA NA 29.76 1007.9
9:56 am CDT SW 6.9 9.00 Overcast -- 79.0 78.4 99% NA NA 29.75 1007.5
8:56 am CDT S 6.9 9.00 Overcast -- 76.0 76.5 100% NA NA 29.75 1007.5
6:56 am CDT SW 9.2 10.00 Overcast -- 74.0 74.3 100% NA NA 29.73 1006.9
5:56 am CDT SW 8.1 10.00 Overcast -- 75.0 74.8 100% NA NA 29.71 1006.2
4:56 am CDT SW 11.5 G 19.6 10.00 Overcast -- 76.0 75.4 99% NA NA 29.69 1005.5
3:56 am CDT SW 16.1 G 32.2 9.00 Light Drizzle -- 76.0 75.2 99% NA NA 29.65 1004.2
2:56 am CDT SW 21.9 G 33.4 10.00 Overcast and Breezy -- 78.0 77.9 99% NA NA 29.60 1002.4
12:56 am CDT S 36.8 G 52.9 7.00 Light Rain Fog/Mist and Windy -- 77.0 76.8 100% NA NA 29.43 996.7
11:56 pm CDT SE 26.5 G 38.0 1.88 Heavy Rain Fog/Mist and Windy 00.29 75.0 75.2 100% NA NA 29.53 1000.1
10:56 pm CDT E 18.4 G 23.0 6.00 Light Rain Fog/Mist -- 75.0 75.0 100% NA NA 29.65 1004.2
9:56 pm CDT E 15.0 7.00 Light Rain 00.04 75.0 75.2 100% NA NA 29.73 1006.9
8:56 pm CDT E 12.7 7.00 Light Rain 00.02 77.0 76.6 100% NA NA 29.78 1008.6
7:56 pm CDT E 12.7 10.00 Mostly Cloudy -- 79.0 78.6 100% NA NA 29.81 1009.6
6:56 pm CDT E 10.4 10.00 Overcast -- 79.0 78.6 100% NA NA 29.82 1009.9
5:56 pm CDT E 5.8 9.00 Mostly Cloudy Trace 78.0 78.3 100% NA NA 29.84 1010.6
4:56 pm CDT E 6.9 9.00 Light Drizzle Trace 78.0 78.4 100% NA NA 29.85 1010.9

Regional Weather Observation


Montgomery, Dannelly Field, AL (KMGM)

A Few Clouds and Breezy
73.0 F

Alexander City, Thomas C Russell Field Airport, AL (KALX)

Fair
74.0 F

Alabaster, Shelby County Airport, AL (KEET)

A Few Clouds
67.0 F

Mac Crenshaw Memorial Airport, AL (KPRN)

Fair
73.0 F

Troy, Troy Municipal Airport, AL (KTOI)

Fair
79.0 F

Auburn-Opelika Airport, AL (KAUO)

A Few Clouds
77.0 F